TimeCDT,TemperatureF,Dew PointF,Humidity,Sea Level PressureIn,VisibilityMPH,Wind Direction,Wind SpeedMPH,Gust SpeedMPH,PrecipitationIn,Events,Conditions,WindDirDegrees,DateUTC
12:13 AM,12.2,6.8,79,29.67,4.0,WNW,4.6,21.9,N/A,Snow,Light Snow,300,2013-03-19 05:13:00
12:33 AM,12.2,6.8,79,29.68,3.0,WNW,9.2,17.3,N/A,Snow,Light Snow,290,2013-03-19 05:33:00
12:53 AM,12.2,6.8,79,29.68,2.5,WNW,10.4,-,N/A,Snow,Light Snow,290,2013-03-19 05:53:00
1:13 AM,10.4,6.8,85,29.69,4.0,WNW,11.5,18.4,N/A,Snow,Light Snow,290,2013-03-19 06:13:00
1:33 AM,10.4,6.8,85,29.70,5.0,WNW,9.2,20.7,N/A,Snow,Light Snow,300,2013-03-19 06:33:00
1:53 AM,10.4,5.0,79,29.71,4.0,WNW,8.1,18.4,N/A,Snow,Light Snow,300,2013-03-19 06:53:00
2:13 AM,10.4,5.0,79,29.71,4.0,WNW,10.4,21.9,N/A,Snow,Light Snow,290,2013-03-19 07:13:00
2:33 AM,10.4,3.2,73,29.72,5.0,WNW,4.6,17.3,N/A,Snow,Light Snow,300,2013-03-19 07:33:00
2:53 AM,8.6,3.2,79,29.73,5.0,WNW,8.1,16.1,N/A,Snow,Light Snow,300,2013-03-19 07:53:00
3:13 AM,8.6,3.2,79,29.73,4.0,WNW,5.8,-,N/A,Snow,Light Snow,300,2013-03-19 08:13:00
3:33 AM,8.6,3.2,79,29.74,4.0,NW,9.2,16.1,N/A,Snow,Light Snow,310,2013-03-19 08:33:00
3:53 AM,8.6,3.2,79,29.74,4.0,WNW,9.2,16.1,N/A,Snow,Light Snow,300,2013-03-19 08:53:00
4:13 AM,8.6,3.2,79,29.75,7.0,WNW,11.5,17.3,N/A,Snow,Light Snow,300,2013-03-19 09:13:00
4:33 AM,8.6,3.2,79,29.76,7.0,WNW,9.2,17.3,N/A,Snow,Light Snow,300,2013-03-19 09:33:00
4:53 AM,8.6,3.2,79,29.77,7.0,WNW,10.4,20.7,N/A,Snow,Light Snow,290,2013-03-19 09:53:00
5:13 AM,6.8,1.4,79,29.78,7.0,WNW,4.6,-,N/A,Snow,Light Snow,300,2013-03-19 10:13:00
5:33 AM,6.8,1.4,79,29.79,7.0,WNW,9.2,-,N/A,Snow,Light Snow,300,2013-03-19 10:33:00
5:53 AM,6.8,1.4,79,29.80,7.0,NW,6.9,-,N/A,Snow,Light Snow,310,2013-03-19 10:53:00
6:13 AM,5.0,-0.4,78,29.81,10.0,NW,8.1,18.4,N/A,Snow,Light Snow,310,2013-03-19 11:13:00
6:33 AM,3.2,-0.4,85,29.82,10.0,WNW,8.1,-,N/A,Snow,Light Snow,300,2013-03-19 11:33:00
6:53 AM,3.2,-2.2,78,29.83,10.0,WNW,5.8,17.3,N/A,,Mostly Cloudy,300,2013-03-19 11:53:00
7:13 AM,3.2,-2.2,78,29.84,10.0,WNW,5.8,16.1,N/A,,Scattered Clouds,290,2013-03-19 12:13:00
7:33 AM,1.4,-2.2,85,29.85,10.0,NW,8.1,-,N/A,,Clear,310,2013-03-19 12:33:00
7:53 AM,3.2,-2.2,78,29.86,10.0,NW,10.4,18.4,N/A,,Clear,310,2013-03-19 12:53:00
8:13 AM,3.2,-2.2,78,29.86,10.0,WNW,6.9,-,N/A,,Clear,300,2013-03-19 13:13:00
8:33 AM,3.2,-2.2,78,29.87,10.0,WNW,8.1,18.4,N/A,Snow,Light Snow,300,2013-03-19 13:33:00
8:53 AM,5.0,-2.2,72,29.88,7.0,NW,8.1,18.4,N/A,Snow,Light Snow,310,2013-03-19 13:53:00
9:14 AM,6.8,-0.4,72,29.88,10.0,NW,9.2,17.3,N/A,Snow,Light Snow,320,2013-03-19 14:14:00
9:33 AM,8.6,-0.4,67,29.89,10.0,NW,6.9,17.3,N/A,Snow,Light Snow,310,2013-03-19 14:33:00
9:53 AM,8.6,-0.4,67,29.90,7.0,NW,8.1,18.4,N/A,Snow,Light Snow,310,2013-03-19 14:53:00
10:13 AM,10.4,-0.4,62,29.90,5.0,NW,8.1,18.4,N/A,Snow,Light Snow,310,2013-03-19 15:13:00
10:33 AM,10.4,-0.4,62,29.90,7.0,WNW,8.1,16.1,N/A,Snow,Light Snow,290,2013-03-19 15:33:00
10:53 AM,12.2,1.4,62,29.90,2.5,WNW,11.5,19.6,N/A,Snow,Light Snow,300,2013-03-19 15:53:00
11:13 AM,12.2,1.4,62,29.91,4.0,WNW,12.7,19.6,N/A,Snow,Light Snow,300,2013-03-19 16:13:00
11:33 AM,14.0,1.4,57,29.92,3.0,NW,6.9,17.3,N/A,Snow,Light Snow,310,2013-03-19 16:33:00
11:53 AM,14.0,1.4,57,29.92,1.5,WNW,13.8,19.6,N/A,Snow,Light Snow,300,2013-03-19 16:53:00
12:13 PM,15.8,1.4,53,29.92,4.0,WNW,11.5,24.2,N/A,Snow,Light Snow,300,2013-03-19 17:13:00
12:33 PM,15.8,3.2,58,29.93,1.0,WNW,9.2,24.2,N/A,Snow,Light Snow,290,2013-03-19 17:33:00
12:53 PM,17.6,3.2,53,29.93,2.0,West,11.5,23.0,N/A,Snow,Light Snow,280,2013-03-19 17:53:00
1:13 PM,17.6,3.2,53,29.93,2.0,West,11.5,20.7,N/A,Snow,Light Snow,280,2013-03-19 18:13:00
1:33 PM,19.4,3.2,49,29.93,1.0,WNW,12.7,24.2,N/A,Snow,Light Snow,290,2013-03-19 18:33:00
1:53 PM,19.4,3.2,49,29.93,1.5,WNW,15.0,24.2,N/A,Snow,Light Snow,290,2013-03-19 18:53:00
2:13 PM,19.4,3.2,49,29.94,1.2,West,10.4,25.3,N/A,Snow,Light Snow,280,2013-03-19 19:13:00
2:33 PM,19.4,1.4,46,29.94,1.5,West,9.2,20.7,N/A,Snow,Light Snow,280,2013-03-19 19:33:00
2:53 PM,21.2,3.2,46,29.94,5.0,WNW,11.5,21.9,N/A,Snow,Light Snow,290,2013-03-19 19:53:00
3:13 PM,21.2,3.2,46,29.95,4.0,WNW,12.7,26.5,N/A,Snow,Light Snow,290,2013-03-19 20:13:00
3:33 PM,21.2,3.2,46,29.95,7.0,NW,8.1,16.1,N/A,Snow,Light Snow,310,2013-03-19 20:33:00
3:53 PM,21.2,3.2,46,29.96,5.0,WNW,10.4,21.9,N/A,Snow,Light Snow,300,2013-03-19 20:53:00
4:13 PM,19.4,3.2,49,29.97,4.0,WNW,9.2,18.4,N/A,Snow,Light Snow,300,2013-03-19 21:13:00
4:33 PM,19.4,3.2,49,29.98,3.0,West,11.5,20.7,N/A,Snow,Light Snow,270,2013-03-19 21:33:00
4:53 PM,19.4,3.2,49,29.98,4.0,West,12.7,23.0,N/A,Snow,Light Snow,280,2013-03-19 21:53:00
5:13 PM,19.4,3.2,49,29.99,7.0,West,9.2,19.6,N/A,Snow,Light Snow,280,2013-03-19 22:13:00
5:33 PM,19.4,1.4,46,30.00,4.0,West,12.7,23.0,N/A,Snow,Light Snow,280,2013-03-19 22:33:00
5:53 PM,19.4,1.4,46,30.01,7.0,West,9.2,20.7,N/A,Snow,Light Snow,280,2013-03-19 22:53:00
6:13 PM,17.6,1.4,49,30.01,10.0,West,11.5,20.7,N/A,Snow,Light Snow,270,2013-03-19 23:13:00
6:33 PM,15.8,-0.4,49,30.02,7.0,West,6.9,20.7,N/A,,Clear,280,2013-03-19 23:33:00
6:53 PM,15.8,-0.4,49,30.03,10.0,West,9.2,19.6,N/A,,Clear,280,2013-03-19 23:53:00
7:13 PM,14.0,-0.4,53,30.04,10.0,WNW,10.4,17.3,N/A,,Clear,290,2013-03-20 00:13:00
7:33 PM,12.2,-2.2,53,30.04,10.0,West,9.2,18.4,N/A,,Clear,270,2013-03-20 00:33:00
7:53 PM,12.2,-2.2,53,30.05,10.0,West,8.1,-,N/A,,Clear,280,2013-03-20 00:53:00
8:13 PM,10.4,-2.2,57,30.05,10.0,WNW,8.1,-,N/A,,Clear,290,2013-03-20 01:13:00
8:33 PM,10.4,-2.2,57,30.06,10.0,WNW,6.9,-,N/A,,Clear,290,2013-03-20 01:33:00
8:53 PM,10.4,-4.0,52,30.06,10.0,WNW,8.1,-,N/A,,Clear,290,2013-03-20 01:53:00
9:13 PM,8.6,-4.0,57,30.07,10.0,WNW,6.9,-,N/A,,Clear,300,2013-03-20 02:13:00
9:33 PM,8.6,-4.0,57,30.07,10.0,WNW,6.9,-,N/A,,Clear,300,2013-03-20 02:33:00
9:53 PM,8.6,-4.0,57,30.07,10.0,WNW,5.8,-,N/A,,Clear,300,2013-03-20 02:53:00
10:13 PM,6.8,-4.0,61,30.07,10.0,West,6.9,-,N/A,,Clear,280,2013-03-20 03:13:00
10:33 PM,6.8,-4.0,61,30.07,10.0,WNW,6.9,-,N/A,,Clear,300,2013-03-20 03:33:00
10:53 PM,6.8,-4.0,61,30.07,10.0,West,6.9,-,N/A,,Clear,280,2013-03-20 03:53:00
11:13 PM,6.8,-5.8,56,30.07,10.0,WNW,6.9,-,N/A,,Clear,300,2013-03-20 04:13:00
11:33 PM,6.8,-5.8,56,30.06,10.0,NW,4.6,-,N/A,,Clear,310,2013-03-20 04:33:00
11:53 PM,6.8,-5.8,56,30.06,10.0,WNW,8.1,18.4,N/A,,Clear,290,2013-03-20 04:53:00